• In Österreich
  • Länderverzeichnis
  • Für 7 Tage
  • Wassertemperatur
  • Satellitenkarten
  • Wetterkarte
  • News
  • Widgets
  • user-avatar
    Anmelden

    Stündliche Wetter Sidi Bu-l-Abbas

    Heute, 24 Mai, Donnerstag

    Zeit Temperatur Niederschläge Wind Luftdruck Luftfeuchtigkeit
    00:00 +25°C° 0 mm 3 m/S 718 mmHg 48%
    01:00 +24°C° 0 mm 3 m/S 717 mmHg 50%
    02:00 +22°C° 0 mm 3 m/S 717 mmHg 52%
    03:00 +22°C° 0 mm 3 m/S 717 mmHg 54%
    04:00 +22°C° 0 mm 3 m/S 717 mmHg 52%
    05:00 +22°C° 0 mm 4 m/S 717 mmHg 51%
    06:00 +22°C° 0 mm 4 m/S 717 mmHg 50%
    07:00 +26°C° 0 mm 6 m/S 718 mmHg 42%
    08:00 +28°C° 0 mm 7 m/S 718 mmHg 33%
    09:00 +32°C° 0 mm 9 m/S 718 mmHg 25%
    10:00 +33°C° 0 mm 8 m/S 718 mmHg 25%
    11:00 +33°C° 0 mm 8 m/S 718 mmHg 25%
    12:00 +34°C° 0 mm 7 m/S 717 mmHg 24%
    13:00 +33°C° 0 mm 7 m/S 717 mmHg 30%
    14:00 +32°C° 0 mm 7 m/S 717 mmHg 35%
    15:00 +30°C° 0 mm 7 m/S 716 mmHg 41%
    16:00 +28°C° 0 mm 7 m/S 716 mmHg 49%
    17:00 +26°C° 0 mm 6 m/S 716 mmHg 57%
    18:00 +23°C° 0 mm 6 m/S 716 mmHg 66%
    19:00 +21°C° 0 mm 6 m/S 716 mmHg 70%
    20:00 +20°C° 0 mm 5 m/S 717 mmHg 75%
    21:00 +19°C° 0 mm 5 m/S 717 mmHg 79%
    22:00 +19°C° 0 mm 4 m/S 717 mmHg 80%
    23:00 +18°C° 0 mm 4 m/S 717 mmHg 81%

    Morgen, 25 Mai, Freitag

    Zeit Temperatur Niederschläge Wind Luftdruck Luftfeuchtigkeit
    00:00 +18°C° 0 mm 4 m/S 718 mmHg 82%
    01:00 +18°C° 0 mm 3 m/S 718 mmHg 81%
    02:00 +17°C° 0 mm 3 m/S 718 mmHg 81%
    03:00 +17°C° 0 mm 3 m/S 718 mmHg 81%
    04:00 +17°C° 0 mm 3 m/S 718 mmHg 79%
    05:00 +17°C° 0 mm 2 m/S 718 mmHg 77%
    06:00 +17°C° 0 mm 2 m/S 718 mmHg 74%
    07:00 +19°C° 0 mm 3 m/S 718 mmHg 66%
    08:00 +20°C° 0 mm 3 m/S 718 mmHg 58%
    09:00 +21°C° 0 mm 3 m/S 719 mmHg 50%
    10:00 +22°C° 0 mm 4 m/S 719 mmHg 46%
    11:00 +23°C° 0 mm 4 m/S 719 mmHg 41%
    12:00 +26°C° 0 mm 4 m/S 718 mmHg 37%
    13:00 +26°C° 0 mm 5 m/S 718 mmHg 36%
    14:00 +26°C° 0 mm 5 m/S 718 mmHg 35%
    15:00 +27°C° 0 mm 5 m/S 718 mmHg 34%
    16:00 +25°C° 0 mm 5 m/S 718 mmHg 37%
    17:00 +23°C° 0 mm 5 m/S 717 mmHg 39%
    18:00 +22°C° 0 mm 5 m/S 717 mmHg 42%
    19:00 +21°C° 0 mm 4 m/S 718 mmHg 46%
    20:00 +20°C° 0 mm 3 m/S 718 mmHg 49%
    21:00 +19°C° 0 mm 2 m/S 718 mmHg 53%
    22:00 +20°C° 0 mm 1 m/S 718 mmHg 54%
    23:00 +20°C° 0 mm 1 m/S 718 mmHg 56%

    übermorgen, 26 Mai, Samstag

    Zeit Temperatur Niederschläge Wind Luftdruck Luftfeuchtigkeit
    00:00 +19°C° 0 mm 1 m/S 718 mmHg 57%
    01:00 +19°C° 0 mm 1 m/S 718 mmHg 58%
    02:00 +19°C° 0 mm 1 m/S 717 mmHg 59%
    03:00 +18°C° 0 mm 1 m/S 717 mmHg 61%
    04:00 +19°C° 0 mm 1 m/S 717 mmHg 59%
    05:00 +19°C° 0 mm 1 m/S 717 mmHg 57%
    06:00 +20°C° 0 mm 1 m/S 717 mmHg 55%
    07:00 +21°C° 0 mm 1 m/S 717 mmHg 50%
    08:00 +23°C° 0 mm 2 m/S 717 mmHg 45%
    09:00 +24°C° 0 mm 2 m/S 717 mmHg 40%
    10:00 +26°C° 0 mm 3 m/S 717 mmHg 38%
    11:00 +27°C° 0 mm 4 m/S 718 mmHg 36%
    12:00 +29°C° 0 mm 5 m/S 718 mmHg 33%
    13:00 +28°C° 0,2 mm 5 m/S 717 mmHg 36%
    14:00 +28°C° 0,2 mm 5 m/S 717 mmHg 39%
    15:00 +27°C° 0,2 mm 5 m/S 717 mmHg 42%
    16:00 +26°C° 0,1 mm 4 m/S 717 mmHg 46%
    17:00 +25°C° 0,1 mm 3 m/S 717 mmHg 50%
    18:00 +24°C° 0,1 mm 3 m/S 717 mmHg 54%
    19:00 +23°C° 0,4 mm 2 m/S 717 mmHg 58%
    20:00 +21°C° 0,4 mm 2 m/S 718 mmHg 63%
    21:00 +21°C° 0,4 mm 1 m/S 718 mmHg 67%
    22:00 +21°C° 0,7 mm 1 m/S 718 mmHg 70%
    23:00 +21°C° 0,7 mm 1 m/S 718 mmHg 73%

    27 Mai, Sonntag

    Zeit Temperatur Niederschläge Wind Luftdruck Luftfeuchtigkeit
    00:00 +20°C° 0,7 mm 1 m/S 718 mmHg 75%
    01:00 +20°C° 0,1 mm 1 m/S 718 mmHg 77%
    02:00 +20°C° 0,1 mm 1 m/S 718 mmHg 80%
    03:00 +19°C° 0,1 mm 1 m/S 717 mmHg 82%
    04:00 +19°C° 0 mm 1 m/S 718 mmHg 81%
    05:00 +19°C° 0 mm 1 m/S 718 mmHg 81%
    06:00 +19°C° 0 mm 1 m/S 718 mmHg 81%
    07:00 +20°C° 0 mm 2 m/S 719 mmHg 73%
    08:00 +21°C° 0 mm 2 m/S 719 mmHg 66%
    09:00 +24°C° 0 mm 3 m/S 719 mmHg 58%
    10:00 +24°C° 0,4 mm 3 m/S 719 mmHg 57%
    11:00 +23°C° 0,4 mm 4 m/S 719 mmHg 57%
    12:00 +25°C° 0,4 mm 4 m/S 719 mmHg 56%
    13:00 +23°C° 0,4 mm 4 m/S 719 mmHg 58%
    14:00 +23°C° 0,4 mm 4 m/S 718 mmHg 61%
    15:00 +22°C° 0,4 mm 4 m/S 718 mmHg 63%
    16:00 +22°C° 0,3 mm 4 m/S 718 mmHg 64%
    17:00 +21°C° 0,3 mm 4 m/S 718 mmHg 64%
    18:00 +21°C° 0,3 mm 4 m/S 718 mmHg 65%
    19:00 +20°C° 0,2 mm 4 m/S 718 mmHg 67%
    20:00 +19°C° 0,2 mm 3 m/S 719 mmHg 69%
    21:00 +19°C° 0,2 mm 2 m/S 719 mmHg 71%
    22:00 +19°C° 0,2 mm 2 m/S 719 mmHg 72%
    23:00 +18°C° 0,2 mm 2 m/S 719 mmHg 72%

    28 Mai, Montag

    Zeit Temperatur Niederschläge Wind Luftdruck Luftfeuchtigkeit
    00:00 +18°C° 0,2 mm 2 m/S 719 mmHg 72%
    01:00 +18°C° 0 mm 2 m/S 719 mmHg 72%
    02:00 +17°C° 0 mm 2 m/S 719 mmHg 71%
    03:00 +17°C° 0 mm 2 m/S 718 mmHg 70%
    04:00 +17°C° 0 mm 2 m/S 718 mmHg 68%
    05:00 +18°C° 0 mm 2 m/S 719 mmHg 65%
    06:00 +18°C° 0 mm 3 m/S 719 mmHg 62%
    07:00 +19°C° 0 mm 3 m/S 719 mmHg 58%
    08:00 +20°C° 0 mm 4 m/S 719 mmHg 53%
    09:00 +21°C° 0 mm 5 m/S 719 mmHg 48%
    10:00 +22°C° 0 mm 6 m/S 719 mmHg 47%
    11:00 +23°C° 0 mm 6 m/S 719 mmHg 46%
    12:00 +24°C° 0 mm 6 m/S 719 mmHg 44%
    13:00 +24°C° 0 mm 6 m/S 719 mmHg 44%
    14:00 +24°C° 0 mm 6 m/S 719 mmHg 44%
    15:00 +24°C° 0 mm 6 m/S 719 mmHg 44%
    16:00 +23°C° 0 mm 5 m/S 719 mmHg 46%
    17:00 +22°C° 0 mm 5 m/S 719 mmHg 48%
    18:00 +22°C° 0 mm 4 m/S 719 mmHg 50%
    19:00 +21°C° 0 mm 3 m/S 719 mmHg 53%
    20:00 +20°C° 0 mm 2 m/S 719 mmHg 56%
    21:00 +19°C° 0 mm 2 m/S 720 mmHg 59%
    22:00 +20°C° 0 mm 1 m/S 719 mmHg 60%
    23:00 +20°C° 0 mm 1 m/S 719 mmHg 61%

    29 Mai, Dienstag

    Zeit Temperatur Niederschläge Wind Luftdruck Luftfeuchtigkeit
    00:00 +19°C° 0 mm 1 m/S 719 mmHg 62%
    01:00 +19°C° 0 mm 1 m/S 719 mmHg 62%
    02:00 +19°C° 0 mm 1 m/S 718 mmHg 63%
    03:00 +18°C° 0 mm 1 m/S 718 mmHg 64%
    04:00 +17°C° 0 mm 2 m/S 718 mmHg 62%
    05:00 +18°C° 0 mm 2 m/S 719 mmHg 61%
    06:00 +18°C° 0 mm 2 m/S 719 mmHg 60%
    07:00 +19°C° 0 mm 2 m/S 719 mmHg 57%
    08:00 +20°C° 0 mm 3 m/S 719 mmHg 53%
    09:00 +21°C° 0 mm 3 m/S 720 mmHg 50%
    10:00 +22°C° 0 mm 4 m/S 719 mmHg 49%
    11:00 +23°C° 0 mm 4 m/S 719 mmHg 47%
    12:00 +25°C° 0 mm 5 m/S 719 mmHg 46%
    13:00 +25°C° 0 mm 5 m/S 719 mmHg 46%
    14:00 +25°C° 0 mm 5 m/S 719 mmHg 46%
    15:00 +25°C° 0 mm 5 m/S 718 mmHg 46%
    16:00 +23°C° 0 mm 5 m/S 718 mmHg 48%
    17:00 +23°C° 0 mm 4 m/S 718 mmHg 51%
    18:00 +22°C° 0 mm 4 m/S 718 mmHg 53%
    19:00 +21°C° 0 mm 3 m/S 718 mmHg 55%
    20:00 +20°C° 0 mm 3 m/S 719 mmHg 58%
    21:00 +20°C° 0 mm 2 m/S 719 mmHg 60%
    22:00 +19°C° 0 mm 2 m/S 719 mmHg 61%
    23:00 +19°C° 0 mm 2 m/S 719 mmHg 61%
    Mehr zeigen